Key West NAF, FL

2:03 PM EDT on September 19, 2017 (GMT -0400)
Key West Naval Air Station

Weather History for KNQX - January, 2012

Change the Weather History Date:

Wednesday, January 11, 2012

  Actual Average Record
Temperature  
Mean Temperature 76 °F -  
Max Temperature 79 °F 74 °F 83 °F (1991)
Min Temperature 73 °F 65 °F 48 °F (1970)
Cooling Degree Days 11    
Growing Degree Days 26 (Base 50)    
Moisture  
Dew Point 65 °F    
Average Humidity 72    
Maximum Humidity 85    
Minimum Humidity 65    
Precipitation  
Precipitation 0.07 in - - ()
Sea Level Pressure  
Sea Level Pressure 29.91 in    
Wind  
Wind Speed 13 mph (South)    
Max Wind Speed 25 mph    
Max Gust Speed 39 mph    
Visibility 10 miles    
Events Rain , Thunderstorm    
Averages and records for this station are not official NWS values.
T = Trace of Precipitation, MM = Missing Value Source: NWS Daily Summary

Daily Weather History Graph

Daily Weather History Graph

Search for Another Location

Airport or City:

Trip Planner

Search our weather history database for the weather conditions in past years. The results will help you decide how hot, cold, wet, or windy it might be!

Date:

Astronomy

Jan. 11, 2012 Rise Set
Actual Time 7:12 AM EST 5:56 PM EST
Civil Twilight 6:48 AM EST 6:21 PM EST
Nautical Twilight 6:20 AM EST 6:49 PM EST
Astronomical Twilight 5:52 AM EST 7:16 PM EST
Moon 8:31 PM EST (1/11) 8:42 AM EST (1/11)
Length of Visible Light 11h 33m
Length of Day
10h 43m
Waning Gibbous, 93% of the Moon is Illuminated
Jan 11
Waning Gibbous
Jan 16
Last Quarter
Jan 23
New
Jan 30
First Quarter
Feb 7
Full

Hourly Weather History & Observations

Time (EST) Temp. Dew Point Humidity Pressure Visibility Wind Dir Wind Speed Gust Speed Precip Events Conditions
12:53 AM 73.0 °F 64.0 °F 73% 29.96 in 10.0 mi SE 10.4 mph - N/A   Clear
1:53 AM 73.9 °F 64.0 °F 71% 29.95 in 10.0 mi SE 10.4 mph - N/A   Clear
2:53 AM 73.9 °F 64.0 °F 71% 29.94 in 10.0 mi SE 9.2 mph - N/A   Clear
3:53 AM 73.9 °F 64.9 °F 73% 29.91 in 10.0 mi SE 13.8 mph - N/A   Clear
4:53 AM 75.0 °F 64.9 °F 71% 29.90 in 10.0 mi SSE 13.8 mph - N/A   Clear
5:53 AM 75.0 °F 64.9 °F 71% 29.94 in 10.0 mi South 9.2 mph - N/A   Partly Cloudy
6:53 AM 73.9 °F 64.9 °F 73% 29.93 in 10.0 mi SSE 11.5 mph - N/A   Partly Cloudy
7:53 AM 75.9 °F 66.0 °F 71% 29.95 in 10.0 mi SSE 10.4 mph - N/A   Mostly Cloudy
8:53 AM 78.1 °F 66.9 °F 68% 29.97 in 10.0 mi South 11.5 mph - N/A   Mostly Cloudy
9:53 AM 79.0 °F 66.9 °F 66% 29.99 in 10.0 mi South 9.2 mph - N/A   Mostly Cloudy
10:53 AM 79.0 °F 66.9 °F 66% 29.98 in 10.0 mi South 11.5 mph - N/A   Mostly Cloudy
11:53 AM 77.0 °F 66.9 °F 71% 29.95 in 10.0 mi South 10.4 mph - N/A   Mostly Cloudy
12:53 PM 75.9 °F 66.9 °F 74% 29.92 in 10.0 mi South 9.2 mph - N/A   Mostly Cloudy
1:53 PM 75.9 °F 68.0 °F 76% 29.90 in 10.0 mi South 9.2 mph - N/A   Mostly Cloudy
2:53 PM 75.0 °F 68.0 °F 79% 29.89 in 10.0 mi SSW 15.0 mph - N/A   Overcast
2:55 PM 75.2 °F 68.0 °F 78% 29.89 in 10.0 mi South 13.8 mph - 0.00 in Rain Light Rain
3:03 PM 75.2 °F 68.0 °F 78% 29.88 in 10.0 mi South 15.0 mph - 0.00 in Rain , Thunderstorm Light Thunderstorms and Rain
3:53 PM 73.9 °F 69.1 °F 85% 29.82 in 9.0 mi South 19.6 mph 34.5 mph 0.06 in Rain Light Rain
4:53 PM 73.0 °F 62.1 °F 68% 29.84 in 10.0 mi South 25.3 mph 32.2 mph 0.01 in Rain Light Rain
4:56 PM 73.4 °F 60.8 °F 65% 29.85 in 10.0 mi South 25.3 mph 32.2 mph 0.00 in   Overcast
5:53 PM 73.9 °F 64.9 °F 73% 29.85 in 10.0 mi South 25.3 mph 39.1 mph 0.00 in   Mostly Cloudy
6:53 PM 73.9 °F 62.1 °F 66% 29.87 in 10.0 mi South 21.9 mph 35.7 mph N/A   Mostly Cloudy
7:53 PM 73.9 °F 63.0 °F 68% 29.88 in 10.0 mi South 20.7 mph 27.6 mph N/A   Overcast
8:53 PM 75.9 °F 64.0 °F 67% 29.88 in 10.0 mi SSW 19.6 mph 27.6 mph N/A   Overcast
9:53 PM 75.0 °F 66.0 °F 73% 29.90 in 10.0 mi SSW 19.6 mph - N/A   Overcast
10:53 PM 75.0 °F 63.0 °F 66% 29.91 in 10.0 mi SSW 20.7 mph 27.6 mph N/A   Clear
11:53 PM 75.0 °F 68.0 °F 79% 29.91 in 10.0 mi SW 18.4 mph 28.8 mph N/A   Clear